TimeMDT,TemperatureF,Dew PointF,Humidity,Sea Level PressureIn,VisibilityMPH,Wind Direction,Wind SpeedMPH,Gust SpeedMPH,PrecipitationIn,Events,Conditions,WindDirDegrees,DateUTC
12:35 AM,51.8,46.4,82,30.07,10.0,Calm,Calm,-,N/A,,Overcast,0,2013-05-22 06:35:00
12:55 AM,51.8,44.6,76,30.07,10.0,Calm,Calm,-,N/A,,Overcast,0,2013-05-22 06:55:00
1:15 AM,51.8,44.6,76,30.06,10.0,Calm,Calm,-,N/A,,Overcast,0,2013-05-22 07:15:00
1:35 AM,50.0,44.6,82,30.07,10.0,Calm,Calm,-,N/A,,Overcast,0,2013-05-22 07:35:00
2:15 AM,50.0,44.6,82,30.07,10.0,Calm,Calm,-,N/A,,Overcast,0,2013-05-22 08:15:00
2:35 AM,51.8,46.4,82,30.08,10.0,Calm,Calm,-,N/A,,Overcast,0,2013-05-22 08:35:00
2:55 AM,50.0,44.6,82,30.07,10.0,Calm,Calm,-,N/A,,Overcast,0,2013-05-22 08:55:00
3:15 AM,48.2,42.8,82,30.07,10.0,Calm,Calm,-,N/A,,Mostly Cloudy,0,2013-05-22 09:15:00
3:55 AM,46.4,42.8,87,30.07,10.0,North,3.5,-,N/A,,Clear,350,2013-05-22 09:55:00
4:15 AM,44.6,39.2,81,30.07,10.0,NW,4.6,-,N/A,,Clear,320,2013-05-22 10:15:00
4:35 AM,44.6,41.0,87,30.07,10.0,WNW,6.9,-,N/A,,Clear,300,2013-05-22 10:35:00
4:55 AM,44.6,41.0,87,30.06,10.0,WNW,4.6,-,N/A,,Clear,290,2013-05-22 10:55:00
5:15 AM,44.6,39.2,81,30.07,10.0,WNW,4.6,-,N/A,,Clear,290,2013-05-22 11:15:00
5:35 AM,44.6,41.0,87,30.07,10.0,WNW,8.1,-,N/A,,Clear,300,2013-05-22 11:35:00
5:55 AM,44.6,41.0,87,30.07,10.0,WNW,8.1,-,N/A,,Clear,290,2013-05-22 11:55:00
6:15 AM,46.4,42.8,87,30.08,10.0,West,4.6,-,N/A,,Clear,280,2013-05-22 12:15:00
6:35 AM,46.4,42.8,87,30.08,10.0,North,4.6,-,N/A,,Clear,10,2013-05-22 12:35:00
6:55 AM,48.2,42.8,82,30.09,10.0,Calm,Calm,-,N/A,,Clear,0,2013-05-22 12:55:00
7:15 AM,50.0,44.6,82,30.10,10.0,NE,4.6,-,N/A,,Clear,40,2013-05-22 13:15:00
7:35 AM,50.0,44.6,82,30.10,10.0,North,3.5,-,N/A,,Clear,10,2013-05-22 13:35:00
7:55 AM,51.8,44.6,76,30.10,10.0,NNE,3.5,-,N/A,,Clear,30,2013-05-22 13:55:00
8:15 AM,53.6,46.4,77,30.11,10.0,NNE,4.6,-,N/A,,Clear,20,2013-05-22 14:15:00
8:35 AM,53.6,44.6,72,30.11,10.0,NNE,6.9,-,N/A,,Clear,20,2013-05-22 14:35:00
8:55 AM,53.6,42.8,67,30.12,10.0,NE,9.2,-,N/A,,Clear,40,2013-05-22 14:55:00
9:15 AM,55.4,44.6,67,30.12,10.0,NNE,8.1,-,N/A,,Clear,20,2013-05-22 15:15:00
9:35 AM,55.4,42.8,63,30.12,10.0,NE,8.1,-,N/A,,Clear,40,2013-05-22 15:35:00
9:55 AM,59.0,41.0,51,30.11,10.0,ENE,12.7,-,N/A,,Clear,60,2013-05-22 15:55:00
10:15 AM,60.8,39.2,45,30.11,10.0,East,13.8,-,N/A,,Clear,90,2013-05-22 16:15:00
10:35 AM,60.8,37.4,42,30.12,10.0,East,12.7,19.6,N/A,,Clear,90,2013-05-22 16:35:00
10:55 AM,60.8,37.4,42,30.11,10.0,ENE,15.0,-,N/A,,Clear,60,2013-05-22 16:55:00
11:15 AM,62.6,39.2,42,30.12,10.0,East,13.8,20.7,N/A,,Clear,90,2013-05-22 17:15:00
11:35 AM,62.6,37.4,39,30.11,10.0,East,12.7,-,N/A,,Clear,80,2013-05-22 17:35:00
11:55 AM,62.6,35.6,37,30.12,10.0,East,16.1,23.0,N/A,,Clear,90,2013-05-22 17:55:00
12:15 PM,64.4,37.4,37,30.11,10.0,East,19.6,26.5,N/A,,Clear,100,2013-05-22 18:15:00
12:35 PM,64.4,35.6,34,30.11,10.0,East,13.8,25.3,N/A,,Clear,80,2013-05-22 18:35:00
12:55 PM,64.4,37.4,37,30.11,10.0,East,18.4,23.0,N/A,,Clear,100,2013-05-22 18:55:00
1:15 PM,66.2,37.4,35,30.11,10.0,East,13.8,24.2,N/A,,Clear,100,2013-05-22 19:15:00
1:35 PM,66.2,37.4,35,30.11,10.0,ESE,17.3,23.0,N/A,,Clear,110,2013-05-22 19:35:00
1:56 PM,66.2,35.6,32,30.11,10.0,East,18.4,21.9,N/A,,Clear,100,2013-05-22 19:56:00
2:15 PM,68.0,37.4,33,30.11,10.0,East,16.1,21.9,N/A,,Clear,100,2013-05-22 20:15:00
2:35 PM,66.2,33.8,30,30.11,10.0,East,15.0,21.9,N/A,,Clear,80,2013-05-22 20:35:00
2:55 PM,68.0,37.4,33,30.11,10.0,East,13.8,18.4,N/A,,Clear,100,2013-05-22 20:55:00
3:15 PM,68.0,35.6,30,30.11,10.0,East,17.3,24.2,N/A,,Clear,80,2013-05-22 21:15:00
3:36 PM,68.0,37.4,33,30.11,10.0,East,12.7,24.2,N/A,,Clear,100,2013-05-22 21:36:00
3:55 PM,69.8,37.4,31,30.10,10.0,East,10.4,21.9,N/A,,Clear,90,2013-05-22 21:55:00
4:55 PM,68.0,37.4,33,30.10,10.0,East,17.3,21.9,N/A,,Clear,80,2013-05-22 22:55:00
5:15 PM,69.8,35.6,28,30.11,10.0,East,13.8,-,N/A,,Clear,100,2013-05-22 23:15:00
6:15 PM,69.8,35.6,28,30.10,10.0,ESE,17.3,-,N/A,,Clear,110,2013-05-23 00:15:00
6:35 PM,66.2,35.6,32,30.10,10.0,East,17.3,23.0,N/A,,Clear,100,2013-05-23 00:35:00
6:55 PM,66.2,35.6,32,30.11,10.0,ESE,17.3,21.9,N/A,,Clear,110,2013-05-23 00:55:00
7:15 PM,66.2,35.6,32,30.12,10.0,ESE,15.0,-,N/A,,Clear,110,2013-05-23 01:15:00
7:35 PM,66.2,35.6,32,30.12,10.0,East,12.7,-,N/A,,Clear,100,2013-05-23 01:35:00
8:55 PM,57.2,39.2,51,30.14,10.0,East,5.8,-,N/A,,Clear,90,2013-05-23 02:55:00
9:55 PM,55.4,39.2,54,30.16,10.0,Calm,Calm,-,N/A,,Clear,0,2013-05-23 03:55:00
10:35 PM,55.4,37.4,51,30.17,10.0,Calm,Calm,-,N/A,,Clear,0,2013-05-23 04:35:00
10:55 PM,53.6,37.4,54,30.18,10.0,Calm,Calm,-,N/A,,Clear,0,2013-05-23 04:55:00
11:15 PM,53.6,39.2,58,30.18,10.0,Calm,Calm,-,N/A,,Clear,0,2013-05-23 05:15:00
11:55 PM,51.8,39.2,62,30.19,10.0,Calm,Calm,-,N/A,,Clear,0,2013-05-23 05:55:00